Погода в Гандинагаре

Индия     23°14′14″N   72°39′39″E
темп.,
°C
ветер,
м/с
пор.,
м/с
влажн.,
%
обл.,
%
осадки,
мм/ч
давл.,
гПа
погр.,
м
20 апреля, вт
вт2023:30+30зюз491946 0.0 1008193
02:30+28зюз51142100 0.0 1006307
05:30+26зсз4860100 0.0 1007211
08:30+30з564387 0.0 1009701
11:30+37з6720100 0.0 10081854
14:30+39з7814100 0.0 10052689
17:30+38з8913100 0.0 10043336
20:30+32зсз41018100 0.0 1006197
21 апреля, ср
ср2123:30+30з4941100 0.0 1007264
02:30+27зсз3741100 0.0 1007183
05:30+25сз375694 0.0 1008127
08:30+29зсз4542100 0.0 1011643
11:30+36зюз4618100 0.0 10102080
14:30+39зюз5711100 0.0 10073460
17:30+37зсз7712100 0.0 10062826
20:30+31зсз332069 0.0 100825
22 апреля, чт
чт2223:30+29ююз3427100 0.0 100965
02:30+27з3444100 0.0 100856
05:30+24зсз1261100 0.0 100924
08:30+29зсз3543100 0.0 1011504
11:30+37з4320100 0.0 10102137
14:30+40зюз4411100 0.0 10073643
17:30+39зюз65110 0.0 10053479
20:30+32з48140 0.0 1007107
23 апреля, пт
пт2323:30+30зюз45120 0.0 100873
02:30+25з34450 0.0 100758
05:30+24зсз47660 0.0 1008128
08:30+30зсз35460 0.0 1010570
11:30+38зюз45170 0.0 10091863
14:30+41юз66100 0.0 10063681
17:30+40зсз56100 0.0 10043916
20:30+32з4717100 0.0 1007116
24 апреля, сб
сб2423:30+30юз463397 0.0 1008113
02:30+27з48462 0.0 1007199
05:30+25зсз3976100 0.0 1008233
08:30+29зсз3450100 0.0 1011618
11:30+36з3322100 0.0 10091502
14:30+40зюз441312 0.0 10063675
17:30+40зсз641181 0.0 10054171
20:30+33зсз4715100 0.0 1007105